Location: Peebles
(55.6412°N, 3.1714°W)
Time: 15:41:01
(UTC+01:00)

deb r/b Ablestar - Visible Passes

Search period start: 03 July 2022 00:00
Search period end: 13 July 2022 00:00
Orbit: 858 x 1154 km, 67.2° (Epoch: 02 July)

Date Brightness Start Highest point End Pass type
(mag) Time Alt. Az. Time Alt. Az. Time Alt. Az.
03 Jul ? 01:16:30 10° NW 01:23:54 86° NE 01:31:11 10° SE visible
03 Jul ? 03:05:17 10° NW 03:11:34 32° WSW 03:17:45 10° S visible
04 Jul ? 00:03:19 10° NW 00:10:31 55° NE 00:17:39 10° ESE visible
04 Jul ? 01:51:50 10° NW 01:59:03 61° WSW 02:06:08 10° SSE visible
04 Jul ? 22:49:56 10° NW 22:56:44 39° NNE 23:03:33 10° E visible
05 Jul ? 00:38:39 10° NW 00:46:02 79° NE 00:53:19 10° SE visible
05 Jul ? 02:27:20 10° NW 02:33:53 36° WSW 02:40:10 11° S visible
05 Jul ? 23:25:26 10° NW 23:32:34 51° NNE 23:39:38 10° ESE visible
06 Jul ? 01:13:58 10° NW 01:21:16 69° SW 01:28:23 10° SSE visible
06 Jul ? 03:03:19 10° WNW 03:08:23 21° WSW 03:13:21 10° SSW visible
07 Jul ? 00:00:48 10° NW 00:08:09 72° NE 00:15:25 10° SE visible
07 Jul ? 01:49:24 10° NW 01:56:10 42° WSW 02:01:57 14° S visible
07 Jul ? 22:47:33 10° NW 22:54:36 47° NNE 23:01:37 10° ESE visible
08 Jul ? 00:36:06 10° NW 00:43:28 77° SW 00:50:22 11° SSE visible
08 Jul ? 02:25:13 10° NW 02:30:45 24° WSW 02:35:38 12° SSW visible
08 Jul ? 23:22:56 10° NW 23:30:16 66° NE 23:37:29 10° ESE visible
09 Jul ? 01:11:30 10° NW 01:18:27 47° WSW 01:24:05 15° S visible
09 Jul ? 03:02:26 10° WNW 03:04:59 12° W 03:07:31 10° WSW visible
09 Jul ? 23:58:15 10° NW 00:05:38 85° SW 00:12:38 11° SE visible
10 Jul ? 01:47:11 10° NW 01:53:07 27° WSW 01:57:54 14° SSW visible
10 Jul ? 22:45:04 10° NW 22:52:21 60° NE 22:59:31 10° ESE visible
11 Jul ? 00:33:36 10° NW 00:40:42 53° WSW 00:46:30 15° S visible
11 Jul ? 02:23:48 10° WNW 02:27:25 14° W 02:30:59 10° SW visible
11 Jul ? 23:20:23 10° NW 23:27:48 87° NE 23:35:02 10° SE visible
12 Jul ? 01:09:12 10° NW 01:15:26 31° WSW 01:20:25 14° SSW visible
